When you browse on this site, cookies collect data to enhance your experience and personalize the content and advertising you see.
Visit our Privacy Policy to learn more. By continuing to use the site, you agree to this use of cookies and data.
  • In Deutschland
  • Länderverzeichnis
  • Für 7 Tage
  • Wassertemperatur
  • Wetterkarte
  • Widgets
  • user-avatar
    Anmelden

    Stündliche Wetter Gent

    Heute, 29 Mai, Freitag

    Zeit Temperatur Niederschläge Wind Luftdruck Luftfeuchtigkeit
    00:00 +11°C° 0 mm 4 m/S 771 mmHg 70%
    01:00 +10°C° 0 mm 4 m/S 771 mmHg 74%
    02:00 +10°C° 0 mm 4 m/S 771 mmHg 78%
    03:00 +9°C° 0 mm 3 m/S 771 mmHg 82%
    04:00 +10°C° 0 mm 3 m/S 771 mmHg 80%
    05:00 +11°C° 0 mm 4 m/S 771 mmHg 77%
    06:00 +11°C° 0 mm 4 m/S 771 mmHg 75%
    07:00 +13°C° 0 mm 3 m/S 770 mmHg 68%
    08:00 +16°C° 0 mm 3 m/S 770 mmHg 61%
    09:00 +18°C° 0 mm 3 m/S 770 mmHg 54%
    10:00 +20°C° 0 mm 3 m/S 770 mmHg 48%
    11:00 +21°C° 0 mm 3 m/S 770 mmHg 42%
    12:00 +22°C° 0 mm 3 m/S 769 mmHg 37%
    13:00 +22°C° 0 mm 4 m/S 769 mmHg 38%
    14:00 +22°C° 0 mm 4 m/S 768 mmHg 39%
    15:00 +22°C° 0 mm 4 m/S 768 mmHg 40%
    16:00 +21°C° 0 mm 4 m/S 768 mmHg 45%
    17:00 +20°C° 0 mm 4 m/S 767 mmHg 51%
    18:00 +20°C° 0 mm 4 m/S 767 mmHg 56%
    19:00 +18°C° 0 mm 4 m/S 767 mmHg 61%
    20:00 +17°C° 0 mm 3 m/S 767 mmHg 65%
    21:00 +14°C° 0 mm 3 m/S 767 mmHg 70%
    22:00 +13°C° 0 mm 3 m/S 767 mmHg 69%
    23:00 +13°C° 0 mm 3 m/S 767 mmHg 69%

    Morgen, 30 Mai, Samstag

    Zeit Temperatur Niederschläge Wind Luftdruck Luftfeuchtigkeit
    00:00 +12°C° 0 mm 3 m/S 767 mmHg 68%
    01:00 +12°C° 0 mm 3 m/S 767 mmHg 71%
    02:00 +11°C° 0 mm 3 m/S 767 mmHg 73%
    03:00 +10°C° 0 mm 3 m/S 767 mmHg 75%
    04:00 +11°C° 0 mm 3 m/S 767 mmHg 72%
    05:00 +12°C° 0 mm 3 m/S 767 mmHg 69%
    06:00 +13°C° 0 mm 3 m/S 767 mmHg 66%
    07:00 +15°C° 0 mm 4 m/S 767 mmHg 60%
    08:00 +18°C° 0 mm 4 m/S 767 mmHg 53%
    09:00 +20°C° 0 mm 4 m/S 767 mmHg 47%
    10:00 +21°C° 0 mm 5 m/S 767 mmHg 44%
    11:00 +22°C° 0 mm 5 m/S 767 mmHg 42%
    12:00 +23°C° 0 mm 5 m/S 767 mmHg 39%
    13:00 +23°C° 0 mm 5 m/S 766 mmHg 40%
    14:00 +23°C° 0 mm 5 m/S 766 mmHg 40%
    15:00 +23°C° 0 mm 5 m/S 766 mmHg 40%
    16:00 +22°C° 0 mm 4 m/S 766 mmHg 44%
    17:00 +22°C° 0 mm 4 m/S 766 mmHg 48%
    18:00 +21°C° 0 mm 4 m/S 765 mmHg 52%
    19:00 +19°C° 0 mm 4 m/S 766 mmHg 55%
    20:00 +18°C° 0 mm 4 m/S 766 mmHg 57%
    21:00 +15°C° 0 mm 4 m/S 766 mmHg 60%
    22:00 +15°C° 0 mm 4 m/S 766 mmHg 61%
    23:00 +14°C° 0 mm 4 m/S 767 mmHg 62%

    übermorgen, 31 Mai, Sonntag

    Zeit Temperatur Niederschläge Wind Luftdruck Luftfeuchtigkeit
    00:00 +13°C° 0 mm 3 m/S 767 mmHg 64%
    01:00 +12°C° 0 mm 3 m/S 767 mmHg 66%
    02:00 +11°C° 0 mm 3 m/S 767 mmHg 68%
    03:00 +12°C° 0 mm 2 m/S 767 mmHg 70%
    04:00 +12°C° 0 mm 3 m/S 767 mmHg 69%
    05:00 +13°C° 0 mm 3 m/S 767 mmHg 68%
    06:00 +14°C° 0 mm 3 m/S 767 mmHg 68%
    07:00 +15°C° 0 mm 4 m/S 767 mmHg 62%
    08:00 +18°C° 0 mm 4 m/S 767 mmHg 57%
    09:00 +20°C° 0 mm 5 m/S 767 mmHg 51%
    10:00 +20°C° 0 mm 5 m/S 767 mmHg 50%
    11:00 +21°C° 0 mm 5 m/S 767 mmHg 48%
    12:00 +22°C° 0 mm 6 m/S 767 mmHg 46%
    13:00 +22°C° 0 mm 6 m/S 767 mmHg 44%
    14:00 +22°C° 0 mm 6 m/S 766 mmHg 41%
    15:00 +22°C° 0 mm 6 m/S 766 mmHg 39%
    16:00 +21°C° 0 mm 6 m/S 766 mmHg 44%
    17:00 +20°C° 0 mm 5 m/S 766 mmHg 49%
    18:00 +20°C° 0 mm 5 m/S 766 mmHg 53%
    19:00 +18°C° 0 mm 4 m/S 766 mmHg 58%
    20:00 +17°C° 0 mm 4 m/S 766 mmHg 62%
    21:00 +14°C° 0 mm 4 m/S 767 mmHg 66%
    22:00 +14°C° 0 mm 4 m/S 767 mmHg 70%
    23:00 +13°C° 0 mm 3 m/S 766 mmHg 74%

    1 Juni, Montag

    Zeit Temperatur Niederschläge Wind Luftdruck Luftfeuchtigkeit
    00:00 +13°C° 0 mm 3 m/S 766 mmHg 78%
    01:00 +12°C° 0 mm 3 m/S 766 mmHg 80%
    02:00 +12°C° 0 mm 3 m/S 766 mmHg 82%
    03:00 +11°C° 0 mm 3 m/S 766 mmHg 84%
    04:00 +12°C° 0 mm 3 m/S 766 mmHg 81%
    05:00 +13°C° 0 mm 3 m/S 766 mmHg 78%
    06:00 +14°C° 0 mm 3 m/S 766 mmHg 75%
    07:00 +17°C° 0 mm 4 m/S 766 mmHg 68%
    08:00 +18°C° 0 mm 4 m/S 766 mmHg 61%
    09:00 +20°C° 0 mm 5 m/S 766 mmHg 54%
    10:00 +21°C° 0 mm 5 m/S 766 mmHg 51%
    11:00 +22°C° 0 mm 4 m/S 766 mmHg 48%
    12:00 +23°C° 0 mm 4 m/S 765 mmHg 45%
    13:00 +23°C° 0 mm 4 m/S 765 mmHg 45%
    14:00 +23°C° 0 mm 4 m/S 765 mmHg 46%
    15:00 +25°C° 0 mm 4 m/S 765 mmHg 46%
    16:00 +23°C° 0 mm 4 m/S 765 mmHg 49%
    17:00 +22°C° 0 mm 4 m/S 765 mmHg 52%
    18:00 +22°C° 0 mm 4 m/S 764 mmHg 55%
    19:00 +20°C° 0 mm 4 m/S 765 mmHg 60%
    20:00 +18°C° 0 mm 3 m/S 765 mmHg 65%
    21:00 +16°C° 0 mm 3 m/S 765 mmHg 70%
    22:00 +16°C° 0 mm 3 m/S 765 mmHg 75%
    23:00 +15°C° 0 mm 2 m/S 765 mmHg 80%

    2 Juni, Dienstag

    Zeit Temperatur Niederschläge Wind Luftdruck Luftfeuchtigkeit
    00:00 +15°C° 0 mm 2 m/S 764 mmHg 85%
    01:00 +15°C° 0 mm 2 m/S 764 mmHg 87%
    02:00 +14°C° 0 mm 2 m/S 764 mmHg 88%
    03:00 +14°C° 0 mm 2 m/S 764 mmHg 89%
    04:00 +15°C° 0 mm 2 m/S 764 mmHg 84%
    05:00 +16°C° 0 mm 2 m/S 764 mmHg 80%
    06:00 +17°C° 0 mm 2 m/S 763 mmHg 75%
    07:00 +19°C° 0 mm 2 m/S 763 mmHg 68%
    08:00 +21°C° 0 mm 2 m/S 763 mmHg 61%
    09:00 +24°C° 0 mm 2 m/S 763 mmHg 54%
    10:00 +25°C° 0 mm 2 m/S 763 mmHg 49%
    11:00 +26°C° 0 mm 2 m/S 763 mmHg 45%
    12:00 +27°C° 0 mm 2 m/S 762 mmHg 40%
    13:00 +27°C° 0 mm 3 m/S 762 mmHg 42%
    14:00 +26°C° 0 mm 3 m/S 761 mmHg 44%
    15:00 +26°C° 0 mm 4 m/S 761 mmHg 45%
    16:00 +25°C° 0 mm 4 m/S 761 mmHg 50%
    17:00 +23°C° 0 mm 4 m/S 760 mmHg 54%
    18:00 +22°C° 0 mm 4 m/S 760 mmHg 58%
    19:00 +21°C° 0 mm 4 m/S 760 mmHg 64%
    20:00 +19°C° 0 mm 3 m/S 760 mmHg 69%
    21:00 +17°C° 0 mm 3 m/S 760 mmHg 75%
    22:00 +17°C° 0 mm 3 m/S 760 mmHg 76%
    23:00 +17°C° 0 mm 2 m/S 759 mmHg 76%

    3 Juni, Mittwoch

    Zeit Temperatur Niederschläge Wind Luftdruck Luftfeuchtigkeit
    00:00 +16°C° 0 mm 2 m/S 759 mmHg 77%
    01:00 +16°C° 0 mm 2 m/S 758 mmHg 79%
    02:00 +16°C° 0 mm 2 m/S 758 mmHg 81%
    03:00 +16°C° 0 mm 2 m/S 757 mmHg 83%
    04:00 +16°C° 0 mm 2 m/S 757 mmHg 81%
    05:00 +17°C° 0 mm 2 m/S 757 mmHg 79%
    06:00 +18°C° 0 mm 2 m/S 757 mmHg 77%
    07:00 +19°C° 0 mm 3 m/S 757 mmHg 71%
    08:00 +21°C° 0 mm 3 m/S 757 mmHg 65%
    09:00 +22°C° 0 mm 3 m/S 757 mmHg 59%
    10:00 +23°C° 0.3 mm 4 m/S 756 mmHg 56%
    11:00 +25°C° 0.3 mm 4 m/S 756 mmHg 53%
    12:00 +26°C° 0.3 mm 4 m/S 756 mmHg 50%
    13:00 +25°C° 0.1 mm 5 m/S 756 mmHg 53%
    14:00 +24°C° 0.1 mm 6 m/S 755 mmHg 56%
    15:00 +23°C° 0.1 mm 7 m/S 755 mmHg 59%
    16:00 +22°C° 0.1 mm 6 m/S 755 mmHg 62%
    17:00 +20°C° 0.1 mm 6 m/S 755 mmHg 65%
    18:00 +19°C° 0.1 mm 6 m/S 755 mmHg 68%
    19:00 +17°C° 0 mm 6 m/S 755 mmHg 72%
    20:00 +15°C° 0 mm 5 m/S 756 mmHg 76%
    21:00 +14°C° 0 mm 5 m/S 756 mmHg 80%
    22:00 +13°C° 0 mm 5 m/S 756 mmHg 83%
    23:00 +12°C° 0 mm 4 m/S 756 mmHg 86%
    Mehr zeigen